[[{"header":{"parameterUnit":"m.s-1","parameterCategory":1,"la1":30.2991,"la2":30.254,"lo1":-89.0895,"lo2":-89.0444,"dy":0.0017,"dx":0.0017,"nx":28,"ny":28,"refTime":"2024-04-13T21:00:00:Z","depth":0,"parameterNumber":2,"parameterNumberName":"U-component_of_WINDS"},"data":[0,0,0,0,0,0,0,0,0,0,0,0,0,0,0,0,0,0,0,0,0,0,0,0,0,0,0,0,0,0,0,0,0,0,0,0,0,0,0,0,0,0,0,0,0,0,0,0,0,0,0,0,0,0,0,0,0,0,-2.2772,-2.2773,0,-2.2812,-2.2812,-2.2812,-2.2816,-2.2815,-2.2815,-2.2814,-2.2852,-2.2853,-2.2854,0,0,0,0,0,0,0,0,0,0,0,0,0,-2.2697,-2.2698,-2.2772,-2.2773,-2.2773,-2.2811,-2.2812,-2.2812,-2.2816,-2.2815,-2.2815,-2.2814,-2.2851,-2.2853,-2.2855,0,0,0,0,0,0,0,0,0,0,0,0,0,-2.2732,-2.2698,-2.2772,-2.2779,-2.278,-2.2811,-2.2812,-2.2813,-2.2816,-2.2815,-2.2815,-2.2814,-2.2851,-2.2853,-2.2855,-2.288,0,0,-2.2861,-2.2862,0,0,0,0,0,0,0,0,-2.273,-2.2735,-2.2778,-2.2779,-2.278,-2.2808,-2.2799,-2.2835,-2.2816,-2.2802,-2.2814,-2.2814,-2.2838,-2.2841,-2.2849,-2.2882,-2.2883,-2.2861,-2.2863,-2.2863,-2.2864,0,0,0,0,0,0,0,-2.2727,-2.2733,-2.2788,-2.2778,-2.278,-2.278,-2.2784,-2.2806,-2.2823,-2.2803,-2.2804,-2.2809,-2.2838,-2.2847,-2.285,-2.2884,-2.2861,-2.2863,-2.2864,-2.2865,-2.2938,-2.2939,0,0,0,0,0,0,-2.2724,-2.2731,-2.2786,-2.2789,-2.2753,-2.2782,-2.2786,-2.28,-2.2823,-2.2826,-2.2809,-2.2809,-2.2844,-2.2848,-2.2852,-2.2882,-2.2863,-2.2865,-2.2867,-2.2938,-2.2938,-2.2939,0,0,0,0,0,0,-2.2722,-2.2729,-2.2785,-2.276,-2.2767,-2.2784,-2.2798,-2.2801,-2.281,-2.2827,-2.283,-2.2816,-2.2844,-2.2849,-2.2873,-2.2883,-2.2866,-2.2868,-2.2937,-2.2938,-2.2939,-2.2943,0,0,0,0,0,0,-2.272,-2.2728,-2.2739,-2.276,-2.2768,-2.2806,-2.2799,-2.2802,-2.2814,-2.2814,-2.2834,-2.2836,-2.2844,-2.287,-2.2875,-2.2886,-2.287,-2.2936,-2.2937,-2.2939,-2.2942,-2.2944,-2.2946,0,0,0,0,0,-2.2718,-2.2738,-2.2739,-2.2746,-2.2782,-2.2807,-2.2812,-2.282,-2.2815,-2.2825,-2.2836,-2.2836,-2.2882,-2.2872,-2.2878,-2.289,-2.2935,-2.2937,-2.2938,-2.2941,-2.2944,-2.2946,0,0,0,0,0,0,-2.2716,-2.2741,-2.2743,-2.2771,-2.2787,-2.2808,-2.2821,-2.2823,-2.284,-2.2839,-2.2848,-2.2852,-2.2876,-2.2886,-2.2875,-2.2915,-2.2908,-2.291,-2.2908,-2.291,-2.2912,-2.2909,-2.2872,0,0,0,0,0,-2.272,-2.2739,-2.2759,-2.2782,-2.279,-2.2804,-2.2815,-2.2821,-2.2837,-2.2843,-2.2856,-2.2871,-2.2889,-2.29,-2.2918,-2.2944,-2.2948,-2.2955,-2.2956,-2.2958,-2.296,-2.2973,-2.2976,-2.2944,-2.2944,-2.2944,0,0,-2.2726,-2.2742,-2.2753,-2.2782,-2.2795,-2.2814,-2.2809,-2.2829,-2.2843,-2.2846,-2.287,-2.288,-2.2897,-2.2922,-2.2934,-2.2931,-2.297,-2.296,-2.2961,-2.2962,-2.2975,-2.2978,-2.2981,-2.2945,-2.2945,-2.2945,0,0,-2.2747,-2.2761,-2.2782,-2.2795,-2.2815,-2.2824,-2.2829,-2.285,-2.2857,-2.2881,-2.2883,-2.2899,-2.293,-2.2942,-2.2952,-2.2978,-2.2978,-2.2983,-2.2993,-2.3006,-2.3008,-2.3011,-2.3019,-2.3021,-2.2986,-2.2986,-2.2986,0,-2.2752,-2.2781,-2.2791,-2.2811,-2.2823,-2.2829,-2.2848,-2.2861,-2.2885,-2.2893,-2.2889,-2.2927,-2.294,-2.2967,-2.2973,-2.2982,-2.2987,-2.298,-2.3007,-2.301,-2.3012,-2.302,-2.3023,-2.2986,-2.2986,-2.2986,-2.2986,0,-2.2785,-2.2806,-2.2819,-2.2844,-2.2857,-2.2877,-2.289,-2.2902,-2.2907,-2.2916,-2.294,-2.2955,-2.2975,-2.2982,-2.2986,-2.301,-2.3007,-2.3006,-2.2998,-2.3015,-2.3022,-2.3026,-2.2986,-2.2986,-2.2986,-2.2986,0,0,-2.2806,-2.2836,-2.2841,-2.2852,-2.2874,-2.2889,-2.2909,-2.293,-2.294,-2.2957,-2.2972,-2.2998,-2.2997,-2.3008,-2.3014,-2.3026,-2.3044,-2.3022,-2.3023,-2.3024,-2.3069,-2.307,-2.3073,-2.3045,-2.3045,-2.3046,-2.3068,0,-2.2828,-2.2864,-2.2874,-2.2904,-2.2922,-2.2927,-2.2944,-2.296,-2.2969,-2.2985,-2.2995,-2.3012,-2.301,-2.3017,-2.3029,-2.3039,-2.3052,-2.3038,-2.3058,-2.3059,-2.3052,-2.3077,-2.3078,-2.3097,-2.3071,-2.3071,-2.3071,0,-2.2859,-2.2877,-2.2909,-2.2929,-2.2937,-2.2952,-2.2971,-2.2987,-2.3004,-2.301,-2.3023,-2.3028,-2.3047,-2.304,-2.3067,-2.3056,-2.3065,-2.3072,-2.3073,-2.3074,-2.3065,-2.3078,-2.3104,-2.3107,-2.3076,-2.3076,-2.3076,0,-2.2869,-2.2901,-2.2924,-2.2934,-2.2958,-2.2968,-2.2979,-2.2995,-2.3007,-2.3024,-2.3031,-2.305,-2.306,-2.3073,-2.3082,-2.3077,-2.3108,-2.3102,-2.3112,-2.3112,-2.3117,-2.3116,-2.3144,-2.3125,-2.3125,-2.3125,-2.3125,0,-2.2892,-2.2911,-2.2929,-2.2943,-2.2964,-2.2975,-2.2996,-2.3006,-2.3021,-2.3036,-2.3042,-2.3056,-2.3068,-2.3084,-2.3091,-2.3111,-2.3116,-2.312,-2.3122,-2.3119,-2.3118,-2.3124,-2.3122,-2.3126,-2.3126,-2.3126,-2.3125,0,-2.2906,-2.2919,-2.2944,-2.2966,-2.2972,-2.2986,-2.3004,-2.3017,-2.3027,-2.3046,-2.3051,-2.3066,-2.3085,-2.3096,-2.3119,-2.3124,-2.3146,-2.3147,-2.314,-2.3141,-2.315,-2.3149,-2.3181,-2.3186,-2.3165,-2.3165,-2.3165,0,-2.2919,-2.2934,-2.2957,-2.2968,-2.2979,-2.2997,-2.3009,-2.3021,-2.3033,-2.3053,-2.3064,-2.3083,-2.3099,-2.3128,-2.314,-2.3158,-2.3159,-2.3169,-2.3162,-2.3158,-2.3158,-2.3156,-2.3157,-2.317,-2.317,-2.3171,-2.3171,0,-2.2941,-2.2947,-2.2964,-2.2984,-2.2999,-2.3015,-2.3031,-2.3039,-2.3053,-2.3066,-2.3086,-2.3098,-2.3122,-2.3141,-2.316,-2.3169,-2.3172,-2.3173,-2.3176,-2.3173,-2.3168,-2.317,-2.3142,-2.3172,-2.3172,-2.3172,-2.3172,-2.3172,-2.2954,-2.2967,-2.2985,-2.3005,-2.3018,-2.3033,-2.3046,-2.3058,-2.3075,-2.3096,-2.3102,-2.3122,-2.3138,-2.3164,-2.3174,-2.3189,-2.3187,-2.3192,-2.3193,-2.3194,-2.3193,-2.3167,-2.3193,-2.3193,-2.3193,-2.3193,-2.3193,0,-2.2975,-2.2987,-2.3005,-2.3027,-2.3042,-2.3045,-2.3063,-2.3075,-2.3093,-2.3108,-2.3124,-2.3146,-2.3164,-2.3178,-2.3196,-2.3205,-2.3207,-2.321,-2.3208,-2.321,-2.3195,-2.3189,-2.3208,-2.3208,-2.3208,-2.3208,-2.3208,-2.3208,-2.2987,-2.3009,-2.3017,-2.3046,-2.3058,-2.3078,-2.3088,-2.3101,-2.3114,-2.3138,-2.3154,-2.3163,-2.3178,-2.3197,-2.3214,-2.3217,-2.3223,-2.3225,-2.3229,-2.3213,-2.3212,-2.321,-2.3205,-2.3227,-2.3227,-2.3243,-2.3243,-2.3244]},{"header":{"parameterUnit":"m.s-1","parameterCategory":1,"la1":30.2991,"la2":30.254,"lo1":-89.0895,"lo2":-89.0444,"dy":0.0017,"dx":0.0017,"nx":28,"ny":28,"refTime":"2024-04-13T21:00:00:Z","depth":0,"parameterNumber":3,"parameterNumberName":"V-component_of_WINDS"},"data":[0,0,0,0,0,0,0,0,0,0,0,0,0,0,0,0,0,0,0,0,0,0,0,0,0,0,0,0,0,0,0,0,0,0,0,0,0,0,0,0,0,0,0,0,0,0,0,0,0,0,0,0,0,0,0,0,0,0,2.7464,2.7464,0,2.7473,2.7473,2.7473,2.7434,2.7433,2.7432,2.7431,2.744,2.7441,2.7442,0,0,0,0,0,0,0,0,0,0,0,0,0,2.7414,2.7415,2.7464,2.7464,2.7464,2.7473,2.7473,2.7473,2.7434,2.7433,2.7432,2.743,2.7439,2.7441,2.7442,0,0,0,0,0,0,0,0,0,0,0,0,0,2.743,2.7415,2.7464,2.7446,2.7444,2.7473,2.7473,2.7473,2.7435,2.7433,2.7431,2.743,2.7439,2.7441,2.7442,2.7488,0,0,2.7448,2.7449,0,0,0,0,0,0,0,0,2.7429,2.7432,2.7448,2.7447,2.7446,2.7451,2.7458,2.7478,2.7435,2.7438,2.7431,2.7429,2.7445,2.7446,2.7451,2.7489,2.7489,2.7449,2.745,2.7451,2.7451,0,0,0,0,0,0,0,2.7428,2.7432,2.7467,2.7449,2.7447,2.7437,2.7438,2.7462,2.7451,2.7438,2.7435,2.7437,2.7443,2.745,2.7451,2.7489,2.7448,2.745,2.7451,2.7452,2.7566,2.7568,0,0,0,0,0,0,2.743,2.7431,2.7467,2.7468,2.7433,2.744,2.744,2.7451,2.7451,2.7449,2.7438,2.7435,2.7447,2.7449,2.7451,2.7506,2.7451,2.7452,2.7453,2.7564,2.7567,2.7569,0,0,0,0,0,0,2.7429,2.7433,2.7467,2.7449,2.7452,2.7442,2.7454,2.7452,2.7458,2.7451,2.7449,2.7446,2.7446,2.7449,2.748,2.7506,2.7453,2.7455,2.7562,2.7565,2.7568,2.7616,0,0,0,0,0,0,2.7427,2.7433,2.745,2.7449,2.7453,2.7495,2.7456,2.7453,2.7461,2.7457,2.7458,2.7456,2.7445,2.7477,2.7482,2.7508,2.7456,2.756,2.7564,2.7567,2.7612,2.762,2.7627,0,0,0,0,0,2.7426,2.7463,2.7451,2.7456,2.7475,2.7497,2.7499,2.7485,2.7464,2.7481,2.7477,2.7456,2.7502,2.7481,2.7486,2.7512,2.7558,2.7563,2.7567,2.7608,2.7618,2.7627,0,0,0,0,0,0,2.7467,2.7463,2.745,2.7488,2.7493,2.749,2.7511,2.7495,2.7507,2.7502,2.7484,2.7485,2.7519,2.7519,2.7495,2.7558,2.7527,2.7532,2.7557,2.7566,2.7573,2.7573,2.7458,0,0,0,0,0,2.7481,2.7499,2.7494,2.7528,2.7531,2.7521,2.753,2.7519,2.7524,2.7526,2.7523,2.7529,2.7544,2.7555,2.7569,2.7611,2.7612,2.7632,2.764,2.7646,2.7651,2.7675,2.7684,2.7583,2.7583,2.7582,0,0,2.7509,2.7509,2.7521,2.7537,2.7539,2.7559,2.7523,2.7545,2.756,2.7529,2.7558,2.7557,2.7562,2.7599,2.7616,2.76,2.7679,2.7651,2.7656,2.7658,2.768,2.769,2.7698,2.7585,2.7585,2.7584,0,0,2.7571,2.7572,2.7601,2.7605,2.761,2.7603,2.761,2.761,2.7608,2.7637,2.7615,2.7632,2.7659,2.7663,2.7669,2.7734,2.7716,2.7739,2.7778,2.7801,2.781,2.7817,2.7841,2.7849,2.7744,2.7744,2.7744,0,2.7605,2.7634,2.7618,2.7642,2.765,2.7623,2.7653,2.7657,2.7666,2.7672,2.7655,2.7689,2.769,2.7729,2.7745,2.775,2.7758,2.7739,2.781,2.7817,2.7823,2.7846,2.7855,2.7747,2.7747,2.7746,2.7746,0,2.7677,2.7697,2.772,2.773,2.774,2.7767,2.7756,2.7768,2.7756,2.7751,2.7782,2.7783,2.7797,2.7805,2.7793,2.7842,2.7833,2.7813,2.7781,2.7836,2.7857,2.7865,2.7751,2.775,2.7749,2.7748,0,0,2.7765,2.7766,2.7775,2.778,2.7783,2.7799,2.7825,2.7839,2.785,2.7857,2.7879,2.7903,2.7885,2.7892,2.788,2.7901,2.7953,2.7878,2.7878,2.7893,2.8009,2.8025,2.8035,2.7941,2.7943,2.7944,2.8009,0,2.7826,2.787,2.7857,2.7902,2.7921,2.7896,2.7919,2.7924,2.792,2.7936,2.7932,2.795,2.7924,2.7928,2.7947,2.7943,2.7977,2.7938,2.7962,2.7963,2.7963,2.8046,2.8063,2.8124,2.8017,2.8018,2.8019,0,2.7903,2.7915,2.7961,2.7963,2.797,2.7991,2.8004,2.8019,2.8024,2.802,2.8028,2.8013,2.8039,2.8007,2.8043,2.8017,2.8026,2.8026,2.8028,2.803,2.7995,2.8052,2.8143,2.8152,2.8032,2.8031,2.803,0,2.7965,2.7991,2.8023,2.8027,2.8029,2.8045,2.8046,2.805,2.806,2.8071,2.8077,2.8091,2.8098,2.8109,2.8099,2.8076,2.8137,2.8104,2.8135,2.8135,2.8149,2.8148,2.8244,2.8153,2.8153,2.8153,2.8153,0,2.8035,2.8065,2.805,2.807,2.8103,2.8088,2.8121,2.812,2.8123,2.8143,2.8122,2.814,2.8124,2.8141,2.8133,2.8165,2.8168,2.8166,2.8163,2.8168,2.8169,2.8175,2.8171,2.8155,2.8155,2.8154,2.8154,0,2.8109,2.81,2.8133,2.8133,2.8134,2.8158,2.8158,2.8176,2.8171,2.8196,2.8201,2.8193,2.8212,2.8202,2.8222,2.8217,2.8258,2.8249,2.8257,2.8255,2.8287,2.8284,2.839,2.8403,2.8303,2.8304,2.8305,0,2.8155,2.8178,2.818,2.8191,2.8195,2.8213,2.8223,2.8209,2.8221,2.8229,2.8247,2.8264,2.8278,2.831,2.8306,2.8322,2.8314,2.835,2.8316,2.8321,2.8316,2.8315,2.8318,2.8357,2.8358,2.8359,2.836,0,2.8238,2.8233,2.8248,2.8263,2.8275,2.8286,2.8294,2.8305,2.8291,2.8305,2.8325,2.8335,2.8356,2.8374,2.8388,2.839,2.8373,2.837,2.8378,2.8384,2.8388,2.8388,2.8276,2.8368,2.8367,2.8367,2.8366,2.8366,2.83,2.832,2.8325,2.8343,2.8348,2.8357,2.8374,2.8372,2.8388,2.8404,2.8395,2.8418,2.8424,2.844,2.8444,2.8463,2.8448,2.846,2.8463,2.8467,2.8472,2.8384,2.8465,2.8465,2.8464,2.8464,2.8464,0,2.8383,2.8386,2.8402,2.8415,2.843,2.8413,2.8422,2.8435,2.8456,2.8463,2.8476,2.85,2.8517,2.8515,2.8531,2.8547,2.854,2.8552,2.8551,2.8552,2.8483,2.8475,2.8557,2.8557,2.8557,2.8557,2.8557,2.8557,2.8428,2.8461,2.8456,2.8491,2.8493,2.8516,2.8523,2.8531,2.8536,2.8563,2.8578,2.8577,2.858,2.8596,2.8612,2.8611,2.8619,2.8634,2.863,2.8566,2.8556,2.8548,2.854,2.8635,2.8635,2.8698,2.8698,2.8699]}]]